STARLINK-32171 (60332 NORAD) Tracking and Keplerian Element Data

This shows tracking and keplerian element data for the satellite.

Feedback or suggestion? Click here.




ElementValue
Catalog60332
NameSTARLINK-32171
Epoch Orbit1108
Epoch Day286.45885787
Epoch Year2024
RAAN299.7789
Inclination53.1611
Eccentricity0.0001596
Argument of Perigee87.0054
Mean Anonmoly273.113
Mean Motion15.30195126
Decay Rate-5.363E-05
L11 60332U 24136D 24286.45885787 -.00005363 00000+0 -16909-3 0 9990
L22 60332 53.1611 299.7789 0001596 87.0054 273.1130 15.30195126 11089



Live tracking and technical data element details for STARLINK-32171 (NORAD 60332). STARLINK-32171 can be tracked NOW for your location showing map with azimuth and elevation plus other details from your city location.







IsCatalogInMostPopularTable: catalog: 60332, numindb: 7
Update: records affected: 1



GetName: 60332 STARLINK-32171

Hit Count: updated at: Tue, 03 Dec 2024 01:18:40 GMT